This is the latest recevied weather packets stored in our database for station/object GBTWP-2. If no packets are shown the sender has not sent any weather packets the latest 10 day(s).
| Time | Temp. | Humidity | Pressure | Rain* | Wind** | Luminosity | Snow |
|---|---|---|---|---|---|---|---|
| 1788189720 | 23.89° C | 79% | 1020.8 hPa | 0 mm | - | 96 W/m² | - |
| 1788189421 | 23.89° C | 79% | 1020.6 hPa | 0 mm | - | 98 W/m² | - |
| 1788189117 | 23.89° C | 80% | 1020.5 hPa | 0 mm | - | 111 W/m² | - |
| 1788188820 | 23.89° C | 80% | 1020.1 hPa | 0 mm | - | 120 W/m² | - |
| 1788188520 | 23.89° C | 81% | 1020.1 hPa | 0 mm | - | 99 W/m² | - |
| 1788188220 | 23.33° C | 82% | 1020 hPa | 0 mm | - | 96 W/m² | - |
| 1788187920 | 23.33° C | 82% | 1020 hPa | 0 mm | - | 90 W/m² | - |
| 1788187620 | 23.33° C | 82% | 1019.8 hPa | 0 mm | - | 84 W/m² | - |
| 1788187320 | 23.33° C | 82% | 1019.8 hPa | 0 mm | - | 83 W/m² | - |
| 1788187020 | 23.33° C | 82% | 1019.8 hPa | 0 mm | - | 94 W/m² | - |
| 1788186420 | 22.78° C | 84% | 1019.6 hPa | 0 mm | - | 110 W/m² | - |
| 1788186120 | 22.78° C | 84% | 1019.5 hPa | 0 mm | - | 101 W/m² | - |
| 1788185821 | 22.78° C | 85% | 1019.4 hPa | 0 mm | - | 85 W/m² | - |
| 1788185517 | 22.78° C | 85% | 1019.5 hPa | 0 mm | - | 79 W/m² | - |
| 1788185221 | 22.78° C | 85% | 1019.5 hPa | 0 mm | - | 82 W/m² | - |
| 1788184920 | 22.78° C | 86% | 1019.6 hPa | 0 mm | - | 95 W/m² | - |
| 1788184621 | 22.22° C | 87% | 1019.5 hPa | 0 mm | - | 90 W/m² | - |
| 1788184320 | 22.22° C | 88% | 1019.6 hPa | 0 mm | - | 69 W/m² | - |
| 1788184020 | 22.22° C | 87% | 1019.6 hPa | 0 mm | - | 66 W/m² | - |
| 1788183720 | 22.22° C | 87% | 1019.4 hPa | 0 mm | - | 76 W/m² | - |
| 1788183421 | 22.22° C | 87% | 1019.5 hPa | 0 mm | - | 87 W/m² | - |
| 1788183120 | 22.22° C | 87% | 1019.5 hPa | 0 mm | - | 65 W/m² | - |
| 1788182820 | 22.22° C | 86% | 1019.6 hPa | 0 mm | - | 54 W/m² | - |
| 1788182520 | 22.22° C | 87% | 1019.3 hPa | 0 mm | - | 77 W/m² | - |
| 1788182220 | 22.22° C | 87% | 1019.4 hPa | 0 mm | - | 112 W/m² | - |
* Rain latest hour (hover to see other rain measurements)
** Current wind speed in m/s (hover to see current wind gust speed)